Location: Newark
(47.5000°N, 4.6167°E)
Time: 00:35:22
(UTC+00:00)

ISS - Visible Passes

Search period start: 02 December 2021 00:00
Search period end: 12 December 2021 00:00
Orbit: 417 x 423 km, 51.6° (Epoch: 01 December)

Date Brightness Start Highest point End Pass type
(mag) Time Alt. Az. Time Alt. Az. Time Alt. Az.
02 Dec -3.2 16:56:47 10° WNW 17:00:04 44° N 17:02:15 18° ENE visible
02 Dec -1.5 18:33:40 10° WNW 18:35:15 25° WNW 18:35:15 25° WNW visible
03 Dec -3.9 17:46:26 10° WNW 17:49:52 89° NE 17:50:10 72° ESE visible
04 Dec -3.7 16:59:14 10° WNW 17:02:38 66° NNE 17:05:13 16° E visible
04 Dec -1.3 18:36:19 10° W 18:38:14 23° WSW 18:38:14 23° WSW visible
05 Dec -2.6 17:48:56 10° WNW 17:52:10 42° SW 17:53:27 28° SSE visible
06 Dec -3.3 17:01:38 10° WNW 17:05:00 63° SSW 17:08:22 10° SE visible
06 Dec -0.6 18:39:58 10° WSW 18:41:17 12° SW 18:41:57 11° SW visible
07 Dec -1.0 17:51:50 10° W 17:54:15 18° SW 17:56:39 10° S visible
08 Dec -1.5 17:04:13 10° W 17:07:10 27° SW 17:10:05 10° SSE visible
10 Dec -0.3 17:07:52 10° WSW 17:09:05 11° SW 17:10:17 10° SSW visible
